DW8219 Weather Reports


Display with metric or nautical units.
time (UTC)temp
F
wind
direction
speed
MPH
gust
MPH
rain 1hr
in
rain 24hr
in
rain mn
in
humidity
%
barometer
mb
20260506035905 69 188 8.0 21.0 0.00 0.00 0.00 57 1008.3
20260506035406 69 200 9.0 17.0 0.00 0.00 0.00 57 1008.4
20260506034905 69 200 10.0 16.0 0.00 0.00 0.00 56 1008.4
20260506033905 69 200 9.0 20.0 0.00 0.00 0.00 56 1008.4
20260506033404 69 211 9.0 24.0 0.00 0.00 0.00 55 1008.4
20260506032906 69 193 9.0 17.0 0.00 0.00 0.00 55 1008.4
20260506032405 69 208 10.0 20.0 0.00 0.00 0.00 55 1008.3
20260506031904 69 213 6.0 14.0 0.00 0.00 0.00 55 1008.3
20260506031405 69 191 8.0 20.0 0.00 0.00 0.00 56 1008.3
20260506030905 69 178 6.0 13.0 0.00 0.00 0.00 56 1008.3
20260506030405 69 176 4.0 12.0 0.00 0.00 0.00 56 1008.2
20260506025906 69 193 7.0 15.0 0.00 0.00 0.00 56 1008.2
20260506025405 69 179 7.0 14.0 0.00 0.00 0.00 56 1008.2
20260506024905 69 176 6.0 15.0 0.00 0.00 0.00 57 1008.3
20260506024406 69 188 6.0 14.0 0.00 0.00 0.00 57 1008.3
20260506023905 69 202 5.0 12.0 0.00 0.00 0.00 56 1008.3
20260506023404 70 169 6.0 13.0 0.00 0.00 0.00 56 1008.4
20260506022905 70 184 7.0 13.0 0.00 0.00 0.00 55 1008.3
20260506022403 70 184 6.0 15.0 0.00 0.00 0.00 55 1008.2
20260506021904 70 179 5.0 13.0 0.00 0.00 0.00 55 1008.3
20260506021404 70 177 7.0 18.0 0.00 0.00 0.00 55 1008.3
20260506020903 70 183 6.0 15.0 0.00 0.00 0.00 55 1008.3
20260506020404 70 182 10.0 16.0 0.00 0.00 0.00 54 1008.2
20260506015904 70 184 5.0 13.0 0.00 0.00 0.00 54 1008.2
20260506015404 71 176 9.0 15.0 0.00 0.00 0.00 53 1008.2
20260506014904 71 176 10.0 20.0 0.00 0.00 0.00 53 1008.1
20260506014404 71 171 10.0 20.0 0.00 0.00 0.00 52 1008.0
20260506013904 71 179 9.0 23.0 0.00 0.00 0.00 52 1008.0
20260506013404 71 179 14.0 24.0 0.00 0.00 0.00 52 1007.9
20260506012404 71 183 6.0 16.0 0.00 0.00 0.00 50 1007.8
20260506011903 72 176 6.0 14.0 0.00 0.00 0.00 48 1007.7
20260506011404 73 150 4.0 16.0 0.00 0.00 0.00 45 1007.7
20260506005904 76 185 7.0 17.0 0.00 0.00 0.00 39 1007.3
20260506005404 76 198 10.0 17.0 0.00 0.00 0.00 39 1007.2
20260506004904 76 186 11.0 18.0 0.00 0.00 0.00 39 1007.2
20260506004404 76 230 9.0 20.0 0.00 0.00 0.00 38 1007.1
20260506003904 76 198 10.0 20.0 0.00 0.00 0.00 38 1007.1
20260506003404 77 200 12.0 23.0 0.00 0.00 0.00 38 1007.0
20260506002904 77 208 9.0 20.0 0.00 0.00 0.00 37 1007.0
20260506002404 77 207 12.0 21.0 0.00 0.00 0.00 37 1007.1
20260506001904 77 191 7.0 17.0 0.00 0.00 0.00 35 1006.9
20260506001404 77 203 5.0 13.0 0.00 0.00 0.00 34 1006.9
20260506000904 77 232 6.0 14.0 0.00 0.00 0.00 34 1006.9
20260506000404 77 215 12.0 20.0 0.00 0.00 0.00 33 1006.8
20260505235904 78 208 9.0 18.0 0.00 0.00 0.00 33 1006.7
20260505235404 78 221 11.0 18.0 0.00 0.00 0.00 32 1006.7
20260505234404 78 210 10.0 20.0 0.00 0.00 0.00 32 1006.6
20260505233904 78 202 3.0 12.0 0.00 0.00 0.00 32 1006.6
20260505233405 78 210 9.0 14.0 0.00 0.00 0.00 31 1006.6
20260505232905 78 212 7.0 17.0 0.00 0.00 0.00 31 1006.5
20260505231904 79 212 8.0 18.0 0.00 0.00 0.00 30 1006.2
20260505231404 79 230 12.0 23.0 0.00 0.00 0.00 29 1006.3
20260505230904 79 228 10.0 22.0 0.00 0.00 0.00 29 1006.2
20260505230404 79 209 12.0 22.0 0.00 0.00 0.00 29 1006.2
20260505225905 79 233 15.0 23.0 0.00 0.00 0.00 28 1006.1
20260505225405 79 223 10.0 20.0 0.00 0.00 0.00 28 1006.0
20260505224904 80 238 12.0 26.0 0.00 0.00 0.00 29 1006.0
20260505224405 80 226 13.0 25.0 0.00 0.00 0.00 28 1005.8
20260505223904 80 212 10.0 23.0 0.00 0.00 0.00 28 1005.9
20260505223405 80 229 13.0 21.0 0.00 0.00 0.00 28 1005.8
20260505222905 80 229 10.0 26.0 0.00 0.00 0.00 28 1005.7
20260505222404 81 222 12.0 25.0 0.00 0.00 0.00 27 1005.7
20260505221904 80 217 16.0 33.0 0.00 0.00 0.00 28 1005.8
20260505220905 80 221 14.0 25.0 0.00 0.00 0.00 28 1005.8
20260505220405 80 223 13.0 23.0 0.00 0.00 0.00 28 1005.7
20260505215905 81 220 14.0 29.0 0.00 0.00 0.00 28 1005.5
20260505215405 81 236 13.0 24.0 0.00 0.00 0.00 28 1005.5
20260505214904 81 216 14.0 28.0 0.00 0.00 0.00 28 1005.4
20260505214404 81 205 10.0 21.0 0.00 0.00 0.00 29 1005.2
20260505213905 81 207 12.0 25.0 0.00 0.00 0.00 28 1005.5
20260505213405 82 228 16.0 30.0 0.00 0.00 0.00 28 1005.5
20260505212905 82 200 15.0 26.0 0.00 0.00 0.00 29 1005.3
20260505212404 83 203 13.0 25.0 0.00 0.00 0.00 28 1005.3
20260505211905 82 212 15.0 26.0 0.00 0.00 0.00 29 1005.3
20260505211405 82 194 18.0 28.0 0.00 0.00 0.00 29 1005.4
20260505205404 83 232 12.0 22.0 0.00 0.00 0.00 28 1005.3
20260505203904 83 216 12.0 21.0 0.00 0.00 0.00 28 1005.3
20260505202403 83 217 13.0 26.0 0.00 0.00 0.00 30 1005.5
20260505201904 83 212 20.0 37.0 0.00 0.00 0.00 28 1005.5
20260505201404 83 213 16.0 30.0 0.00 0.00 0.00 29 1005.4
20260505200903 83 216 10.0 18.0 0.00 0.00 0.00 30 1005.5
20260505200404 84 197 14.0 21.0 0.00 0.00 0.00 29 1005.5
20260505195904 83 228 11.0 24.0 0.00 0.00 0.00 29 1005.7
20260505195403 83 222 13.0 26.0 0.00 0.00 0.00 29 1005.8
20260505194904 83 197 17.0 26.0 0.00 0.00 0.00 28 1005.8
20260505194404 83 230 17.0 26.0 0.00 0.00 0.00 28 1005.7
20260505193904 83 209 17.0 35.0 0.00 0.00 0.00 30 1005.7
20260505193404 83 196 14.0 26.0 0.00 0.00 0.00 30 1006.0
20260505192904 83 200 15.0 26.0 0.00 0.00 0.00 31 1006.0
20260505191905 83 217 10.0 23.0 0.00 0.00 0.00 32 1006.2
20260505191403 83 220 15.0 23.0 0.00 0.00 0.00 31 1006.3
20260505190904 83 194 15.0 26.0 0.00 0.00 0.00 30 1006.2
20260505190405 84 215 10.0 20.0 0.00 0.00 0.00 32 1006.4
20260505185904 83 197 9.0 25.0 0.00 0.00 0.00 35 1006.7
20260505185404 83 217 14.0 23.0 0.00 0.00 0.00 33 1006.7
20260505184904 83 208 11.0 24.0 0.00 0.00 0.00 34 1006.8
20260505183403 83 216 9.0 26.0 0.00 0.00 0.00 35 1006.8
20260505182904 83 179 15.0 26.0 0.00 0.00 0.00 33 1006.9
20260505182405 83 211 11.0 20.0 0.00 0.00 0.00 36 1006.9
20260505181905 83 183 11.0 21.0 0.00 0.00 0.00 33 1007.0
20260505181405 83 202 14.0 25.0 0.00 0.00 0.00 34 1007.0
20260505180905 83 215 15.0 25.0 0.00 0.00 0.00 33 1007.1
20260505180404 83 198 12.0 26.0 0.00 0.00 0.00 33 1007.0
20260505175904 83 195 13.0 23.0 0.00 0.00 0.00 35 1007.0
20260505175406 82 190 7.0 16.0 0.00 0.00 0.00 38 1007.0
20260505174904 82 193 9.0 22.0 0.00 0.00 0.00 40 1007.1
20260505174404 82 210 13.0 23.0 0.00 0.00 0.00 38 1007.2
20260505173905 82 172 13.0 21.0 0.00 0.00 0.00 36 1007.3
20260505173406 81 211 7.0 21.0 0.00 0.00 0.00 39 1007.3
20260505172904 81 182 7.0 13.0 0.00 0.00 0.00 41 1007.5
20260505172404 81 210 10.0 16.0 0.00 0.00 0.00 41 1007.5
20260505171904 80 156 9.0 17.0 0.00 0.00 0.00 42 1007.4
20260505170905 80 166 9.0 16.0 0.00 0.00 0.00 42 1007.6
20260505170405 81 193 9.0 18.0 0.00 0.00 0.00 40 1007.7
20260505165904 80 202 5.0 12.0 0.00 0.00 0.00 42 1007.7
20260505164905 80 208 8.0 16.0 0.00 0.00 0.00 43 1007.9
20260505164404 80 167 5.0 12.0 0.00 0.00 0.00 41 1007.8
20260505163906 80 192 7.0 14.0 0.00 0.00 0.00 41 1007.9
20260505163405 81 207 6.0 14.0 0.00 0.00 0.00 40 1008.0
20260505162904 80 242 3.0 15.0 0.00 0.00 0.00 41 1008.1
20260505162404 79 210 5.0 13.0 0.00 0.00 0.00 41 1008.2
20260505161405 78 209 6.0 13.0 0.00 0.00 0.00 43 1008.4
20260505160905 78 173 5.0 15.0 0.00 0.00 0.00 44 1008.4
20260505160404 78 222 6.0 16.0 0.00 0.00 0.00 44 1008.4
20260505151905 75 177 4.0 14.0 0.00 0.00 0.00 45 1009.0
20260505151405 75 213 6.0 10.0 0.00 0.00 0.00 50 1009.0
20260505150405 74 174 2.0 9.0 0.00 0.00 0.00 47 1008.9
20260505140404 70 231 6.0 12.0 0.00 0.00 0.00 52 1009.5
20260505124905 66 225 4.0 10.0 0.00 0.00 0.00 60 1008.9
20260505124404 65 229 2.0 10.0 0.00 0.00 0.00 62 1009.0
20260505123905 65 216 4.0 10.0 0.00 0.00 0.00 63 1009.0
20260505123404 64 218 3.0 6.0 0.00 0.00 0.00 64 1009.1
20260505122405 63 215 2.0 5.0 0.00 0.00 0.00 67 1009.1
20260505121405 62 202 0.0 2.0 0.00 0.00 0.00 69 1009.3
20260505120904 61 204 0.0 2.0 0.00 0.00 0.00 71 1009.2
20260505120404 60 191 0.0 0.0 0.00 0.00 0.00 72 1009.2
20260505115905 59 192 0.0 2.0 0.00 0.00 0.00 74 1009.2
20260505115404 59 179 1.0 3.0 0.00 0.00 0.00 73 1009.2
20260505113904 60 181 5.0 10.0 0.00 0.00 0.00 73 1008.7
20260505113406 59 113 1.0 3.0 0.00 0.00 0.00 72 1009.3
20260505112905 59 159 1.0 5.0 0.00 0.00 0.00 72 1009.2
20260505112406 59 180 1.0 2.0 0.00 0.00 0.00 72 1009.2
20260505111905 59 208 0.0 1.0 0.00 0.00 0.00 71 1009.1
20260505111404 59 208 0.0 6.0 0.00 0.00 0.00 71 1009.2
20260505110404 59 189 3.0 5.0 0.00 0.00 0.00 70 1009.4
20260505101905 56 173 1.0 3.0 0.00 0.00 0.00 74 1009.1
20260505101405 56 190 1.0 3.0 0.00 0.00 0.00 74 1008.9
20260505100904 56 194 2.0 6.0 0.00 0.00 0.00 74 1008.9
20260505100405 56 178 2.0 5.0 0.00 0.00 0.00 74 1008.9
20260505095905 56 194 1.0 3.0 0.00 0.00 0.00 74 1008.7
20260505095404 56 194 0.0 1.0 0.00 0.00 0.00 73 1008.6
20260505094905 56 211 0.0 0.0 0.00 0.00 0.00 74 1008.5
20260505094405 56 205 0.0 2.0 0.00 0.00 0.00 73 1008.3
20260505093404 56 183 3.0 6.0 0.00 0.00 0.00 73 1008.3
20260505092904 56 190 2.0 5.0 0.00 0.00 0.00 72 1008.3
20260505091404 56 185 2.0 7.0 0.00 0.00 0.00 72 1008.3
20260505090905 56 196 3.0 10.0 0.00 0.00 0.00 72 1008.3
20260505090405 56 184 2.0 7.0 0.00 0.00 0.00 72 1008.3
20260505085904 56 195 2.0 8.0 0.00 0.00 0.00 72 1008.3
20260505085405 56 180 1.0 6.0 0.00 0.00 0.00 72 1008.3
20260505084905 56 197 2.0 7.0 0.00 0.00 0.00 71 1008.3
20260505083905 56 182 0.0 2.0 0.00 0.00 0.00 71 1008.3
20260505083404 56 184 1.0 3.0 0.00 0.00 0.00 71 1008.4
20260505082904 56 182 0.0 3.0 0.00 0.00 0.00 70 1008.4
20260505082405 56 200 0.0 3.0 0.00 0.00 0.00 70 1008.3
20260505081904 57 183 0.0 3.0 0.00 0.00 0.00 70 1008.3
20260505081404 57 182 0.0 2.0 0.00 0.00 0.00 70 1008.3
20260505080904 57 182 0.0 1.0 0.00 0.00 0.00 70 1008.3
20260505080404 57 180 0.0 2.0 0.00 0.00 0.00 69 1008.3
20260505075905 57 184 1.0 2.0 0.00 0.00 0.00 69 1008.3
20260505075404 57 208 0.0 5.0 0.00 0.00 0.00 69 1008.4
20260505074904 57 188 3.0 6.0 0.00 0.00 0.00 68 1008.3
20260505074404 57 163 2.0 6.0 0.00 0.00 0.00 68 1008.2
20260505073904 57 181 2.0 6.0 0.00 0.00 0.00 68 1008.3
20260505073404 57 187 1.0 6.0 0.00 0.00 0.00 68 1008.3
20260505072404 57 189 1.0 3.0 0.00 0.00 0.00 67 1008.2
20260505070404 58 185 3.0 6.0 0.00 0.00 0.00 67 1008.3
20260505065904 58 232 1.0 6.0 0.00 0.00 0.00 67 1008.2
20260505064905 58 186 3.0 6.0 0.00 0.00 0.00 66 1008.2
20260505064404 58 205 4.0 7.0 0.00 0.00 0.00 66 1008.2
20260505063905 58 202 2.0 6.0 0.00 0.00 0.00 65 1008.2
20260505063405 58 218 0.0 3.0 0.00 0.00 0.00 65 1008.2
20260505061404 58 204 1.0 7.0 0.00 0.00 0.00 66 1008.4
20260505060905 58 208 1.0 5.0 0.00 0.00 0.00 66 1008.5
20260505060406 58 190 1.0 6.0 0.00 0.00 0.00 66 1008.5
20260505055904 58 193 0.0 2.0 0.00 0.00 0.00 67 1008.5
20260505055404 58 187 0.0 2.0 0.00 0.00 0.00 66 1008.4
20260505054904 58 192 1.0 3.0 0.00 0.00 0.00 66 1008.5
20260505054406 58 184 0.0 1.0 0.00 0.00 0.00 65 1008.5
20260505053905 58 177 0.0 3.0 0.00 0.00 0.00 65 1008.5
20260505053405 59 180 1.0 3.0 0.00 0.00 0.00 64 1008.5
20260505052905 59 167 2.0 6.0 0.00 0.00 0.00 63 1008.6
20260505052404 59 178 1.0 7.0 0.00 0.00 0.00 63 1008.6
20260505051905 59 186 3.0 8.0 0.00 0.00 0.00 62 1008.6
20260505051405 59 188 2.0 9.0 0.00 0.00 0.00 62 1008.6
20260505050904 60 179 3.0 10.0 0.00 0.00 0.00 62 1008.7
20260505050405 60 181 3.0 8.0 0.00 0.00 0.00 61 1008.7
20260505041404 61 179 2.0 10.0 0.00 0.00 0.00 58 1008.8
20260505040905 61 177 3.0 10.0 0.00 0.00 0.00 57 1008.8